Location: Albany
(35.0170°S, 117.8920°E)
Time: 17:10:02
(UTC+08:00)

Explorer 11/Cluster Stage 4 - Pass Details

Date: 24 January 2021
Orbit: 467 x 1257 km, 28.8° (Epoch: 02 March)

Event Time Altitude Azimuth Distance (km) Brightness Sun altitude
Rises 08:44:07 0° 303° (WNW) 3,547 9.6 40.0°
Reaches altitude 10° 08:47:16 10° 314° (NW) 2,456 8.9 40.6°
Maximum altitude 08:52:10 29° 11° (NNE) 1,318 8.2 41.6°
Drops below altitude 10° 08:56:15 10° 71° (ENE) 2,022 9.8 42.4°
Sets 08:58:36 0° 83° (E) 2,821 10.3 42.9°
